Location: Newark
(44.3681°N, 100.3364°W)
Time: 14:06:41
(UTC+00:00)

SR - Pass Details

Date: 03 March 2020
Orbit: 578 x 878 km, 66.7° (Epoch: 06 April)

Event Time Altitude Azimuth Distance (km) Brightness Sun altitude
Rises 03:21:28 0° 333° (NNW) 3,296 ? -30.6°
Reaches altitude 10° 03:24:15 10° 343° (NNW) 2,312 ? -31.1°
Enters shadow 03:26:33 22° 2° (N) 1,610 ? -31.4°
